[[{"header":{"parameterUnit":"m.s-1","parameterCategory":1,"la1":30.2991,"la2":30.254,"lo1":-89.0895,"lo2":-89.0444,"dy":0.0017,"dx":0.0017,"nx":28,"ny":28,"refTime":"2024-03-24T21:00:00:Z","depth":0,"parameterNumber":2,"parameterNumberName":"U-component_of_WINDS"},"data":[0,0,0,0,0,0,0,0,0,0,0,0,0,0,0,0,0,0,0,0,0,0,0,0,0,0,0,0,0,0,0,0,0,0,0,0,0,0,0,0,0,0,0,0,0,0,0,0,0,0,0,0,0,0,0,0,0,0,-5.1941,-5.1942,0,-5.2015,-5.2016,-5.2017,-5.199,-5.1988,-5.1987,-5.1985,-5.2065,-5.2069,-5.2072,0,0,0,0,0,0,0,0,0,0,0,0,0,-5.1778,-5.1781,-5.1941,-5.1942,-5.1943,-5.2015,-5.2016,-5.2017,-5.199,-5.1988,-5.1986,-5.1984,-5.2064,-5.2068,-5.2073,0,0,0,0,0,0,0,0,0,0,0,0,0,-5.1851,-5.1782,-5.1941,-5.1938,-5.1938,-5.2015,-5.2016,-5.2018,-5.1991,-5.1988,-5.1986,-5.1983,-5.2062,-5.2068,-5.2073,-5.2158,0,0,-5.209,-5.2093,0,0,0,0,0,0,0,0,-5.1847,-5.1857,-5.1937,-5.1938,-5.1939,-5.1991,-5.1988,-5.2065,-5.1991,-5.1971,-5.1985,-5.1982,-5.2043,-5.205,-5.2069,-5.2162,-5.2166,-5.2091,-5.2094,-5.2096,-5.2098,0,0,0,0,0,0,0,-5.1842,-5.1853,-5.197,-5.1938,-5.1939,-5.1934,-5.1941,-5.2003,-5.202,-5.1972,-5.1971,-5.198,-5.2043,-5.2064,-5.2071,-5.2167,-5.2091,-5.2096,-5.2099,-5.2101,-5.2333,-5.2336,0,0,0,0,0,0,-5.1836,-5.1849,-5.1968,-5.1973,-5.1885,-5.1939,-5.1947,-5.1977,-5.2019,-5.2023,-5.1982,-5.1978,-5.2056,-5.2065,-5.2074,-5.2175,-5.2096,-5.2102,-5.2105,-5.233,-5.2334,-5.2337,0,0,0,0,0,0,-5.1832,-5.1847,-5.1965,-5.191,-5.1925,-5.1944,-5.1978,-5.1979,-5.2001,-5.2026,-5.203,-5.2,-5.2054,-5.2066,-5.2137,-5.2178,-5.2104,-5.2109,-5.2327,-5.2331,-5.2335,-5.238,0,0,0,0,0,0,-5.1828,-5.1845,-5.1877,-5.1911,-5.1928,-5.2026,-5.198,-5.1983,-5.201,-5.2006,-5.2045,-5.2049,-5.2053,-5.2129,-5.2143,-5.2184,-5.2114,-5.2323,-5.2329,-5.2334,-5.2375,-5.2385,-5.2394,0,0,0,0,0,-5.1822,-5.1887,-5.1879,-5.1893,-5.1968,-5.2028,-5.2038,-5.2041,-5.2013,-5.2046,-5.2062,-5.2047,-5.2172,-5.2137,-5.2152,-5.2195,-5.2321,-5.2327,-5.2333,-5.237,-5.2383,-5.2393,0,0,0,0,0,0,-5.1859,-5.1892,-5.1883,-5.1961,-5.1992,-5.2024,-5.2064,-5.2054,-5.2095,-5.2089,-5.2092,-5.2101,-5.2174,-5.2192,-5.2153,-5.228,-5.2242,-5.2252,-5.2265,-5.2277,-5.2286,-5.228,-5.2118,0,0,0,0,0,-5.1876,-5.1921,-5.1948,-5.2015,-5.2031,-5.2045,-5.2072,-5.2071,-5.2104,-5.2117,-5.2139,-5.2172,-5.2219,-5.2249,-5.2294,-5.2378,-5.2386,-5.2416,-5.2425,-5.2433,-5.2441,-5.2486,-5.2499,-5.2358,-5.2358,-5.2357,0,0,-5.1912,-5.1935,-5.1964,-5.2023,-5.2047,-5.2094,-5.2056,-5.2109,-5.2144,-5.2126,-5.2193,-5.2211,-5.2249,-5.2326,-5.2362,-5.2344,-5.2482,-5.2441,-5.2447,-5.245,-5.2494,-5.2507,-5.2519,-5.2362,-5.2361,-5.236,0,0,-5.2001,-5.2024,-5.2081,-5.2106,-5.2142,-5.2151,-5.2165,-5.2199,-5.2209,-5.2277,-5.2264,-5.2308,-5.2388,-5.2415,-5.2439,-5.2539,-5.2527,-5.2554,-5.2603,-5.2647,-5.2659,-5.2668,-5.2703,-5.2716,-5.2562,-5.2562,-5.2562,0,-5.2041,-5.2111,-5.2112,-5.2165,-5.2191,-5.2176,-5.2234,-5.2259,-5.2309,-5.2328,-5.2307,-5.2406,-5.2431,-5.2514,-5.2539,-5.256,-5.2576,-5.2549,-5.2657,-5.2667,-5.2676,-5.2709,-5.2722,-5.2565,-5.2565,-5.2565,-5.2564,0,-5.2158,-5.2207,-5.2249,-5.2296,-5.2327,-5.2383,-5.2394,-5.2426,-5.2423,-5.2435,-5.2505,-5.2534,-5.2583,-5.2603,-5.2602,-5.2687,-5.2674,-5.2655,-5.2617,-5.2692,-5.2723,-5.2736,-5.2569,-5.2568,-5.2568,-5.2567,0,0,-5.2271,-5.2318,-5.2333,-5.2354,-5.2393,-5.2432,-5.2487,-5.2535,-5.2561,-5.2597,-5.2644,-5.2712,-5.2694,-5.2722,-5.2724,-5.2763,-5.2839,-5.2739,-5.274,-5.2755,-5.2934,-5.2947,-5.2962,-5.2832,-5.2834,-5.2836,-5.293,0,-5.2362,-5.2458,-5.2461,-5.2548,-5.2594,-5.258,-5.2629,-5.2659,-5.2672,-5.2713,-5.2728,-5.2776,-5.275,-5.2766,-5.2804,-5.2822,-5.2875,-5.2815,-5.2875,-5.2877,-5.2864,-5.2978,-5.2992,-5.3079,-5.2943,-5.2945,-5.2946,0,-5.2481,-5.2518,-5.261,-5.2642,-5.2662,-5.2705,-5.2748,-5.2788,-5.2822,-5.2829,-5.286,-5.2856,-5.2914,-5.2875,-5.2955,-5.2914,-5.2939,-5.2952,-5.2955,-5.296,-5.2915,-5.2984,-5.3107,-5.312,-5.2966,-5.2964,-5.2963,0,-5.2552,-5.2626,-5.269,-5.2709,-5.2749,-5.2779,-5.2798,-5.2829,-5.2858,-5.2896,-5.2915,-5.2961,-5.2985,-5.3021,-5.303,-5.3001,-5.311,-5.3072,-5.3117,-5.3117,-5.3139,-5.3137,-5.3266,-5.3158,-5.3158,-5.3157,-5.3157,0,-5.2653,-5.2709,-5.2723,-5.2762,-5.2825,-5.2829,-5.2892,-5.2908,-5.2937,-5.298,-5.2972,-5.3013,-5.3023,-5.3066,-5.3074,-5.3138,-5.315,-5.3157,-5.3158,-5.3157,-5.3156,-5.3172,-5.3166,-5.3161,-5.316,-5.3159,-5.3159,0,-5.2743,-5.2754,-5.2823,-5.2855,-5.2864,-5.2909,-5.2937,-5.2976,-5.2988,-5.3042,-5.3056,-5.3075,-5.3126,-5.3138,-5.3199,-5.3204,-5.328,-5.3276,-5.3268,-5.3267,-5.3311,-5.3306,-5.3454,-5.3473,-5.3354,-5.3355,-5.3356,0,-5.2805,-5.2848,-5.2885,-5.2912,-5.2931,-5.2976,-5.3004,-5.3011,-5.3041,-5.3083,-5.3117,-5.3166,-5.3205,-5.3287,-5.3307,-5.3353,-5.335,-5.3398,-5.3357,-5.3354,-5.3349,-5.3346,-5.335,-5.3406,-5.3407,-5.3408,-5.3409,0,-5.2915,-5.2918,-5.2959,-5.3001,-5.3035,-5.3069,-5.3102,-5.3125,-5.3136,-5.3171,-5.3221,-5.3252,-5.3313,-5.3362,-5.3409,-5.3429,-5.3421,-5.3422,-5.3435,-5.3433,-5.3426,-5.3429,-5.3288,-5.3418,-5.3417,-5.3417,-5.3416,-5.3416,-5.2992,-5.3029,-5.306,-5.3106,-5.3131,-5.3162,-5.3199,-5.3215,-5.3257,-5.3306,-5.3308,-5.3363,-5.3397,-5.3459,-5.3482,-5.3526,-5.3511,-5.353,-5.3534,-5.3538,-5.3541,-5.342,-5.3534,-5.3534,-5.3534,-5.3534,-5.3534,0,-5.31,-5.312,-5.3161,-5.3206,-5.3242,-5.3231,-5.3267,-5.3298,-5.3346,-5.3377,-5.3416,-5.3474,-5.3522,-5.3546,-5.3594,-5.3624,-5.3622,-5.3636,-5.3633,-5.3638,-5.3552,-5.3536,-5.3637,-5.3637,-5.3637,-5.3637,-5.3637,-5.3637,-5.3161,-5.3222,-5.323,-5.3304,-5.3324,-5.3376,-5.3397,-5.3426,-5.3451,-5.3516,-5.3555,-5.357,-5.3599,-5.3648,-5.3692,-5.3698,-5.3715,-5.3731,-5.3735,-5.3655,-5.3644,-5.3634,-5.3618,-5.3735,-5.3736,-5.3817,-5.3818,-5.3818]},{"header":{"parameterUnit":"m.s-1","parameterCategory":1,"la1":30.2991,"la2":30.254,"lo1":-89.0895,"lo2":-89.0444,"dy":0.0017,"dx":0.0017,"nx":28,"ny":28,"refTime":"2024-03-24T21:00:00:Z","depth":0,"parameterNumber":3,"parameterNumberName":"V-component_of_WINDS"},"data":[0,0,0,0,0,0,0,0,0,0,0,0,0,0,0,0,0,0,0,0,0,0,0,0,0,0,0,0,0,0,0,0,0,0,0,0,0,0,0,0,0,0,0,0,0,0,0,0,0,0,0,0,0,0,0,0,0,0,5.1123,5.1123,0,5.11,5.11,5.1099,5.1036,5.1035,5.1033,5.1032,5.1008,5.1008,5.1009,0,0,0,0,0,0,0,0,0,0,0,0,0,5.1114,5.1115,5.1123,5.1123,5.1123,5.11,5.11,5.1099,5.1036,5.1035,5.1033,5.1031,5.1007,5.1008,5.1009,0,0,0,0,0,0,0,0,0,0,0,0,0,5.1107,5.1115,5.1123,5.1089,5.1085,5.11,5.11,5.1099,5.1037,5.1035,5.1033,5.1031,5.1007,5.1008,5.1009,5.1056,0,0,5.1012,5.1012,0,0,0,0,0,0,0,0,5.1108,5.1108,5.1094,5.1091,5.1087,5.1069,5.1087,5.1085,5.1037,5.1055,5.1032,5.103,5.103,5.1029,5.1029,5.1054,5.1053,5.1012,5.1012,5.1013,5.1013,0,0,0,0,0,0,0,5.1108,5.1108,5.1114,5.1094,5.109,5.1074,5.1071,5.1087,5.1054,5.1053,5.1049,5.1047,5.1027,5.1028,5.1028,5.1053,5.1012,5.1013,5.1013,5.1014,5.1118,5.112,0,0,0,0,0,0,5.1114,5.1109,5.1115,5.1113,5.1093,5.1076,5.1072,5.1077,5.1054,5.1048,5.1049,5.1044,5.1027,5.1027,5.1027,5.1081,5.1013,5.1014,5.1014,5.1115,5.1118,5.112,0,0,0,0,0,0,5.1114,5.1115,5.1116,5.111,5.1109,5.1078,5.1084,5.1077,5.1078,5.105,5.1044,5.1055,5.1026,5.1025,5.1049,5.1079,5.1014,5.1015,5.1113,5.1116,5.1119,5.1189,0,0,0,0,0,0,5.1114,5.1115,5.1132,5.1111,5.1109,5.1139,5.1086,5.1078,5.108,5.1073,5.1055,5.1049,5.1024,5.1048,5.105,5.1079,5.1016,5.111,5.1114,5.1118,5.1184,5.1194,5.1203,0,0,0,0,0,5.1114,5.1152,5.1133,5.1134,5.113,5.1141,5.114,5.111,5.1082,5.1099,5.1082,5.105,5.1075,5.1051,5.1053,5.1082,5.1108,5.1113,5.1118,5.1179,5.1192,5.1203,0,0,0,0,0,0,5.1177,5.1149,5.1127,5.116,5.1154,5.113,5.115,5.1124,5.1124,5.1119,5.1081,5.1078,5.1107,5.1097,5.1071,5.1127,5.1087,5.1092,5.1133,5.1144,5.1154,5.1156,5.1017,0,0,0,0,0,5.1195,5.1206,5.118,5.1212,5.121,5.1181,5.1184,5.1162,5.1153,5.115,5.1134,5.1127,5.1133,5.1138,5.1142,5.1182,5.1178,5.1203,5.1213,5.1221,5.1226,5.1248,5.1259,5.1137,5.1137,5.1137,0,0,5.1232,5.1218,5.1227,5.1225,5.1216,5.1229,5.1179,5.1194,5.1203,5.1152,5.1174,5.1163,5.1152,5.1185,5.1198,5.1177,5.1259,5.1227,5.1234,5.1235,5.1254,5.1266,5.1276,5.114,5.1139,5.1139,0,0,5.1306,5.1296,5.1322,5.1316,5.1305,5.1286,5.1292,5.1273,5.1263,5.1285,5.1248,5.1258,5.1269,5.1264,5.1263,5.1337,5.1308,5.1339,5.139,5.1411,5.1421,5.1429,5.1457,5.1467,5.1345,5.1345,5.1345,0,5.1354,5.1371,5.1339,5.1357,5.1357,5.1313,5.1339,5.1334,5.1325,5.1327,5.1303,5.1318,5.1308,5.1339,5.1358,5.1357,5.1364,5.1341,5.1422,5.143,5.1438,5.1464,5.1474,5.1349,5.1348,5.1348,5.1348,0,5.1431,5.1444,5.1466,5.1459,5.1462,5.1484,5.1456,5.1463,5.1441,5.1424,5.1448,5.1434,5.1436,5.1441,5.1419,5.147,5.1458,5.1429,5.1387,5.1454,5.1478,5.1487,5.1355,5.1353,5.1352,5.1351,0,0,5.1544,5.152,5.1529,5.1526,5.1511,5.152,5.1541,5.1543,5.155,5.1546,5.1563,5.1574,5.1548,5.1547,5.1524,5.1543,5.1605,5.1512,5.1511,5.1531,5.1661,5.1684,5.1696,5.1585,5.1587,5.1589,5.1663,0,5.1615,5.1649,5.1621,5.166,5.1672,5.1631,5.1649,5.1642,5.1628,5.1636,5.162,5.163,5.1594,5.1593,5.161,5.1594,5.1631,5.1588,5.1602,5.1603,5.1606,5.1708,5.1731,5.1802,5.1672,5.1673,5.1674,0,5.1701,5.1702,5.1743,5.1727,5.1731,5.1748,5.1749,5.1757,5.1749,5.1737,5.1737,5.171,5.1729,5.1689,5.1716,5.1688,5.1692,5.1685,5.1687,5.1688,5.1643,5.1712,5.1823,5.1835,5.1688,5.1687,5.1686,0,5.1782,5.1792,5.1819,5.1817,5.1799,5.1812,5.1805,5.1795,5.1799,5.1799,5.1801,5.1804,5.1806,5.1809,5.1783,5.1755,5.1814,5.1771,5.1806,5.1807,5.182,5.182,5.1935,5.1822,5.1822,5.1821,5.1821,0,5.1864,5.1891,5.1855,5.1871,5.19,5.1868,5.1898,5.1887,5.1879,5.1893,5.1857,5.187,5.1835,5.1846,5.1826,5.1852,5.1853,5.1845,5.1839,5.1848,5.185,5.1851,5.1846,5.1824,5.1823,5.1823,5.1822,0,5.1959,5.1935,5.1961,5.1942,5.1938,5.1961,5.1945,5.196,5.1943,5.1961,5.1964,5.1938,5.1949,5.1923,5.193,5.1916,5.1955,5.1941,5.1958,5.1954,5.1991,5.1988,5.2111,5.2126,5.2003,5.2004,5.2005,0,5.2013,5.2033,5.2017,5.2024,5.2019,5.2031,5.2034,5.2004,5.201,5.2003,5.2019,5.2026,5.2031,5.205,5.2032,5.2037,5.2024,5.2066,5.2024,5.2033,5.2026,5.2025,5.2028,5.2075,5.2077,5.2078,5.2079,0,5.2113,5.2101,5.2108,5.2112,5.2117,5.2119,5.2117,5.2125,5.2093,5.2101,5.2111,5.2115,5.2122,5.2131,5.2132,5.2125,5.2098,5.2093,5.2101,5.2111,5.2121,5.2117,5.1983,5.209,5.2089,5.2088,5.2087,5.2087,5.219,5.2207,5.2199,5.2208,5.2204,5.2204,5.2217,5.2203,5.2211,5.2215,5.2197,5.2212,5.2205,5.2204,5.22,5.2212,5.2192,5.2204,5.2208,5.2211,5.2218,5.2118,5.2212,5.2211,5.2211,5.2211,5.221,0,5.229,5.2283,5.2292,5.2291,5.2299,5.2273,5.227,5.2278,5.2292,5.2288,5.2293,5.2307,5.2315,5.2298,5.2304,5.2317,5.2304,5.232,5.2319,5.2318,5.2234,5.2227,5.233,5.233,5.233,5.233,5.233,5.233,5.2342,5.237,5.2357,5.2382,5.2374,5.2389,5.239,5.2391,5.2387,5.2403,5.241,5.24,5.2391,5.2396,5.2403,5.2398,5.2402,5.2422,5.2413,5.2335,5.2324,5.2313,5.2305,5.2423,5.2423,5.2495,5.2496,5.2497]}]]